Date,TemperatureHighF,TemperatureAvgF,TemperatureLowF,DewpointHighF,DewpointAvgF,DewpointLowF,HumidityHigh,HumidityAvg,HumidityLow,PressureMaxIn,PressureMinIn,WindSpeedMaxMPH,WindSpeedAvgMPH,GustSpeedMaxMPH,PrecipitationSumIn
2013-1-1,42.1,38.9,29.5,35.9,32.4,19.9,89,77,62,29.94,29.74,17,6,17,0.00
2013-1-2,36.7,29.0,24.3,21.4,18.3,14.6,76,64,53,30.11,29.90,19,5,19,0.00
2013-1-3,37.8,29.4,23.7,24.5,21.1,19.0,85,71,53,30.12,30.00,14,4,14,0.00
2013-1-4,39.4,33.7,28.4,28.3,26.6,24.5,86,75,62,30.04,29.89,27,8,27,0.00
2013-1-5,46.2,35.5,30.6,31.2,26.9,23.3,87,71,52,30.23,29.95,18,4,18,0.00
2013-1-6,50.4,39.1,32.7,41.9,34.7,28.6,99,85,61,30.17,29.89,12,3,12,0.04
2013-1-7,52.0,39.3,28.4,37.4,32.4,27.3,99,78,46,30.33,29.98,15,3,15,0.00
2013-1-8,52.5,38.2,27.5,40.6,34.7,27.3,99,89,63,30.37,30.26,14,3,14,0.00
2013-1-9,54.5,44.0,30.4,48.4,40.9,30.1,99,90,68,30.32,30.05,16,4,16,0.00
2013-1-10,54.7,45.3,36.5,38.8,33.0,29.2,86,63,45,30.47,30.17,17,5,17,0.00
2013-1-11,50.0,44.4,36.7,49.6,43.0,33.1,99,95,80,30.45,29.97,8,2,8,0.38
2013-1-12,49.5,46.4,44.4,49.0,46.2,44.2,99,99,99,30.09,29.96,8,2,8,0.00
2013-1-13,51.8,46.9,42.1,51.4,46.7,41.8,99,99,99,30.07,29.91,9,2,9,0.00
2013-1-14,61.3,51.5,41.0,61.1,48.7,36.7,99,91,62,30.19,29.83,14,3,14,0.06
2013-1-15,40.8,39.2,36.9,40.6,37.0,34.4,99,92,82,30.25,30.11,11,2,11,0.18
2013-1-16,42.6,37.7,35.4,42.4,37.4,35.2,99,99,99,30.12,29.69,14,3,14,0.50
2013-1-17,45.9,40.3,37.8,39.1,37.4,34.0,99,90,70,30.01,29.84,12,3,12,0.01
2013-1-18,37.9,32.1,25.7,35.2,20.5,11.0,91,64,39,30.43,29.89,20,4,20,0.00
2013-1-19,55.0,41.6,27.3,36.9,30.1,17.8,81,64,46,30.35,29.85,20,8,20,0.00
2013-1-20,57.9,45.7,32.4,39.2,31.1,16.7,80,58,32,29.97,29.62,30,10,30,0.00
2013-1-21,34.2,29.9,25.7,28.7,19.4,12.7,99,66,48,30.03,29.74,11,3,14,0.00
2013-1-22,26.2,20.2,13.3,24.3,5.0,-2.5,92,52,36,30.16,29.75,26,10,26,0.00
2013-1-23,23.2,15.0,10.4,7.6,2.5,-2.8,80,58,41,30.20,30.09,18,6,18,0.00
2013-1-24,27.7,18.4,10.8,11.3,5.4,-1.9,83,60,30,30.32,30.05,21,6,21,0.00
2013-1-25,25.7,19.5,12.7,19.9,11.8,0.2,99,74,49,30.35,29.99,12,4,12,0.00
2013-1-26,32.4,21.1,12.2,18.5,13.3,9.5,99,74,45,30.31,29.97,19,5,19,0.01
2013-1-27,38.1,26.0,16.9,20.3,15.5,10.5,88,65,45,30.46,30.30,17,4,17,0.00
2013-1-28,36.0,30.9,22.5,35.7,29.1,18.3,99,93,77,30.43,29.93,10,3,10,0.08
2013-1-29,55.9,43.4,35.2,54.0,43.0,35.0,99,98,84,30.06,29.92,9,2,9,0.01
2013-1-30,63.0,52.6,43.9,62.7,52.4,43.4,99,99,99,29.99,29.30,23,6,23,0.01
2013-1-31,60.4,46.3,30.0,60.0,37.1,15.4,99,72,44,29.75,29.01,30,14,30,0.87
2013-2-1,34.2,28.8,24.1,21.4,15.1,10.3,74,56,40,30.18,29.74,25,8,25,0.00
2013-2-2,34.2,25.7,18.1,24.0,13.2,8.9,99,60,39,30.25,29.98,15,6,15,0.00
2013-2-3,35.6,27.1,20.3,30.5,25.1,20.1,99,92,72,29.98,29.71,13,2,13,0.04
2013-2-4,32.5,26.9,21.7,26.4,18.0,14.2,99,70,50,29.93,29.75,21,7,21,0.00
2013-2-5,35.2,32.0,26.2,35.0,31.7,25.2,99,99,95,29.90,29.79,7,2,7,0.01
2013-2-6,43.5,34.9,28.0,35.9,28.4,15.9,99,79,53,30.29,29.82,20,5,20,0.01
2013-2-7,40.1,31.5,22.8,39.8,22.9,13.0,99,71,61,30.42,30.21,10,3,10,0.00
2013-2-8,42.1,37.8,28.8,41.6,37.5,28.5,99,99,99,30.21,29.51,21,6,21,1.02
2013-2-9,37.9,29.1,20.8,29.5,22.4,11.7,99,78,47,30.26,29.64,26,5,26,0.06
2013-2-10,42.3,27.7,12.7,31.9,19.5,10.0,99,73,39,30.42,30.24,11,3,11,0.00
2013-2-11,55.2,45.5,32.2,54.6,45.2,31.9,99,99,99,30.27,29.55,17,4,17,0.34
2013-2-12,51.1,42.3,32.0,45.2,33.9,27.2,99,74,51,29.89,29.65,24,6,24,0.00
2013-2-13,46.4,38.1,27.3,39.9,33.9,27.1,99,85,65,29.89,29.59,8,3,8,0.04
2013-2-14,52.0,38.8,32.4,43.1,37.0,32.1,99,94,69,29.94,29.60,8,3,8,0.14
2013-2-15,59.2,43.7,33.3,50.0,40.5,33.0,99,89,66,29.95,29.83,10,4,10,0.01
2013-2-16,44.6,37.6,32.0,39.8,33.7,22.8,99,87,68,29.87,29.63,17,5,17,0.00
2013-2-17,35.2,28.8,19.0,23.5,11.2,2.4,73,48,35,29.94,29.57,29,12,29,0.08
2013-2-18,40.5,30.7,17.2,17.4,12.5,2.6,61,47,35,30.19,29.94,22,7,22,0.00
2013-2-19,54.0,40.2,26.2,46.5,36.4,17.0,99,87,61,30.15,29.59,17,4,17,0.17
2013-2-20,39.0,31.7,25.3,34.6,19.4,13.5,84,60,48,29.93,29.65,28,11,28,0.01
2013-2-21,40.1,29.8,23.5,21.2,17.6,13.8,74,61,46,30.20,29.91,31,10,31,0.13
2013-2-22,39.9,33.2,24.6,38.8,30.1,18.6,99,88,72,30.31,30.17,8,3,8,0.01
2013-2-23,44.8,41.2,37.8,44.3,40.9,37.3,99,99,99,30.19,29.68,13,4,13,0.77
2013-2-24,52.9,40.6,32.4,47.4,36.6,26.5,99,86,59,29.91,29.64,21,7,21,0.01
2013-2-25,48.6,38.8,29.3,35.5,31.2,26.2,95,75,57,30.15,29.90,11,3,11,0.00
2013-2-26,47.3,38.0,26.6,45.0,37.0,26.4,99,96,84,30.20,29.73,23,5,23,0.25
2013-2-27,57.0,46.5,40.5,56.6,45.7,39.1,99,97,77,29.76,29.39,19,6,19,0.38
2013-2-28,52.3,44.0,37.4,46.5,40.0,34.1,99,86,65,29.54,29.46,16,4,16,0.00
2013-3-1,48.0,40.2,33.4,39.0,34.5,31.4,99,81,58,29.69,29.52,17,6,17,0.00
2013-3-2,44.1,37.3,30.2,31.5,29.3,27.5,91,73,59,29.70,29.60,14,6,14,0.00
2013-3-3,43.0,34.0,29.1,27.9,24.7,22.3,91,69,50,29.69,29.58,17,7,17,0.00
2013-3-4,46.6,35.5,26.8,28.1,23.9,19.0,80,63,48,29.83,29.68,21,9,21,0.00
2013-3-5,52.3,34.2,30.0,38.8,28.9,24.6,99,81,51,29.94,29.83,14,3,14,0.00
2013-3-6,41.7,39.8,36.0,41.5,39.5,35.5,99,99,97,29.87,29.65,34,9,34,0.25
2013-3-7,40.8,36.2,33.3,39.5,35.8,32.8,99,98,90,29.99,29.77,22,8,22,0.28
2013-3-8,41.7,35.5,31.8,39.3,34.8,31.6,99,97,86,30.08,29.90,17,5,17,0.33
2013-3-9,62.4,44.8,32.5,39.1,32.1,24.3,99,66,28,30.23,30.06,16,5,16,0.00
2013-3-10,50.2,37.7,27.5,44.6,36.8,27.3,99,97,81,30.31,30.22,9,2,9,0.00
2013-3-11,57.0,44.1,32.0,54.6,43.6,31.8,99,98,90,30.24,30.00,17,2,17,0.00
2013-3-12,55.8,50.5,46.4,55.5,50.3,45.9,99,99,98,30.02,29.59,18,7,18,0.71
2013-3-13,54.7,44.4,37.2,45.9,37.3,29.9,99,79,44,29.82,29.71,18,5,18,0.00
2013-3-14,45.0,38.3,30.7,31.7,20.1,13.1,79,49,35,29.88,29.77,31,10,31,0.04
2013-3-15,51.1,39.4,29.1,33.7,24.3,14.1,72,55,44,29.92,29.63,23,7,23,0.00
2013-3-16,42.4,36.7,33.1,36.0,32.1,27.0,99,84,60,29.83,29.68,8,2,8,0.01
2013-3-17,41.9,34.9,28.2,33.6,26.7,22.1,99,74,52,30.22,29.82,17,3,17,0.15
2013-3-18,40.6,35.1,30.0,38.9,30.3,17.9,99,83,59,30.31,29.87,18,6,18,0.45
2013-3-19,53.1,42.1,38.7,45.8,38.9,22.0,99,90,49,29.87,29.60,20,5,20,0.31
2013-3-20,50.2,40.1,32.2,30.2,25.0,21.5,76,56,39,29.83,29.71,22,7,22,0.00
2013-3-21,38.7,33.9,29.7,34.7,28.2,19.7,99,81,55,29.73,29.55,17,4,17,0.01
2013-3-22,43.9,35.2,27.5,26.6,23.8,18.4,83,64,46,29.82,29.66,19,7,19,0.01
2013-3-23,51.8,39.9,30.2,29.5,25.8,21.9,82,59,39,29.85,29.73,24,7,24,0.00
2013-3-24,50.5,39.5,30.2,33.7,27.2,21.1,84,62,41,29.87,29.61,14,3,14,0.00
2013-3-25,39.2,36.3,32.4,38.6,35.3,32.1,99,96,84,29.62,29.34,17,4,17,0.57
2013-3-26,55.4,45.2,33.3,45.0,36.6,33.0,99,73,53,29.78,29.49,14,4,14,0.14
2013-3-27,57.2,44.7,34.0,37.9,34.2,30.0,93,69,40,29.91,29.77,18,6,18,0.00
2013-3-28,55.0,44.4,34.9,38.7,36.0,33.5,99,74,51,30.03,29.88,16,5,16,0.00
2013-3-29,58.5,46.6,37.0,38.3,34.8,30.7,87,65,45,30.07,29.96,17,5,17,0.00
2013-3-30,60.3,47.2,36.3,44.2,37.6,30.6,99,72,36,30.09,29.99,11,3,11,0.00
2013-3-31,55.6,45.9,33.3,49.3,41.0,32.4,99,83,67,30.06,29.80,11,4,11,0.00
2013-4-1,63.3,47.6,39.7,55.1,34.4,18.5,99,62,43,29.82,29.53,23,7,23,0.02
2013-4-2,48.4,39.5,29.1,23.1,19.1,16.0,69,44,30,30.01,29.82,25,7,25,0.00
2013-4-3,51.3,40.7,32.0,24.2,18.6,13.7,56,41,29,30.22,30.00,25,8,25,0.00
2013-4-4,51.3,40.8,29.1,37.5,26.9,14.2,81,58,40,30.32,30.02,13,4,13,0.00
2013-4-5,68.7,49.9,37.6,49.1,36.6,27.3,99,67,27,30.02,29.61,21,4,21,0.15
2013-4-6,53.8,43.2,35.2,34.8,27.4,18.3,91,55,32,30.24,29.90,24,5,24,0.00
2013-4-7,59.9,48.2,34.0,53.0,44.7,32.8,99,88,72,30.24,29.92,17,6,17,0.00
2013-4-8,70.7,58.4,50.2,57.4,53.0,49.9,99,84,58,29.99,29.87,12,4,12,0.00
2013-4-9,88.2,70.0,50.5,63.6,57.7,50.3,99,70,35,29.90,29.80,25,5,25,0.01
2013-4-10,70.2,62.1,51.4,62.7,57.0,51.2,99,84,69,29.85,29.67,21,4,21,0.37
2013-4-11,59.4,53.8,46.4,59.1,53.5,46.1,99,99,99,29.92,29.65,15,5,15,0.04
2013-4-12,46.4,44.2,42.6,46.1,43.9,42.4,99,99,99,29.90,29.58,19,5,19,1.02
2013-4-13,59.9,48.8,40.6,55.7,46.8,40.4,99,93,67,29.89,29.63,14,3,14,0.12
2013-4-14,60.3,48.0,41.5,55.5,45.4,41.3,99,92,58,29.97,29.88,16,2,16,0.00
2013-4-15,57.4,50.2,45.1,51.4,47.7,39.7,99,92,76,30.29,30.14,10,4,10,0.00
2013-4-16,66.7,56.7,46.4,63.5,55.8,46.1,99,97,87,30.28,30.03,19,5,19,0.00
2013-4-17,69.8,60.6,48.2,59.6,55.3,45.6,99,84,60,30.20,30.01,14,4,14,0.00
2013-4-18,58.5,52.3,44.6,56.4,51.8,44.3,99,98,88,30.25,30.00,10,3,10,0.00
2013-4-19,73.8,64.0,53.4,72.8,63.7,53.2,99,99,93,30.00,29.57,21,6,21,0.00
2013-4-20,66.6,54.3,48.6,66.3,43.4,31.6,99,70,43,30.19,29.57,21,8,21,0.41
2013-4-21,54.9,46.0,37.0,38.8,32.6,24.8,95,60,45,30.53,30.19,19,4,19,0.00
2013-4-22,52.7,46.5,40.8,46.5,42.4,36.2,99,86,71,30.55,30.38,19,7,19,0.00
2013-4-23,51.4,45.9,42.3,50.4,45.6,42.0,99,99,96,30.38,30.01,14,4,14,0.01
2013-4-24,68.7,55.9,41.5,62.2,53.6,41.3,99,92,75,30.01,29.75,14,4,14,0.00
2013-4-25,67.5,55.9,46.8,58.4,45.2,37.3,99,70,40,30.18,29.79,21,6,21,0.04
2013-4-26,70.5,55.6,40.5,50.4,44.3,39.6,99,69,41,30.30,30.17,12,3,12,0.00
2013-4-27,72.0,56.4,40.6,48.6,42.4,38.4,96,62,36,30.34,30.21,9,3,9,0.00
2013-4-28,70.9,56.5,41.0,58.3,46.6,38.4,99,72,42,30.24,30.12,11,2,11,0.00
2013-4-29,55.9,53.6,51.3,55.7,53.3,51.0,99,99,99,30.15,30.07,9,2,9,0.26
2013-4-30,64.4,55.6,45.3,60.2,52.5,45.1,99,90,64,30.20,29.82,15,3,15,0.00
2013-5-1,62.8,52.0,41.2,58.0,49.9,40.9,99,93,72,30.00,29.85,11,2,11,0.00
2013-5-2,70.5,55.4,41.4,60.5,49.8,41.1,99,83,55,30.00,29.86,10,2,10,0.00
2013-5-3,60.8,54.3,47.8,53.7,50.3,47.6,99,87,67,29.99,29.88,14,4,14,0.00
2013-5-4,64.2,53.3,43.0,57.7,50.2,42.7,99,90,69,29.89,29.78,11,3,11,0.00
2013-5-5,60.1,51.5,45.1,53.7,48.8,44.9,99,91,75,29.83,29.76,11,4,11,0.00
2013-5-6,61.7,52.7,48.4,58.9,52.1,48.1,99,98,90,29.79,29.69,11,3,11,0.00
2013-5-7,65.3,55.5,49.6,64.5,55.2,49.4,99,99,95,29.69,29.60,9,2,9,0.01
2013-5-8,70.9,61.0,55.8,70.4,60.4,55.5,99,98,85,29.61,29.48,16,3,16,0.86
2013-5-9,74.3,60.9,54.5,69.7,59.9,54.2,99,97,73,29.51,29.41,11,2,11,0.15
2013-5-10,82.6,67.0,55.8,71.8,63.8,55.5,99,90,66,29.52,29.39,8,2,8,0.00
2013-5-11,79.7,65.2,61.2,77.5,64.9,60.9,99,99,87,29.42,29.21,11,2,11,0.31
2013-5-12,71.1,62.5,51.4,64.5,51.2,34.6,99,71,35,29.48,29.18,24,6,24,0.07
2013-5-13,60.1,51.5,41.0,44.0,37.1,30.0,96,60,39,30.00,29.48,20,5,20,0.00
2013-5-14,67.1,51.8,38.3,51.7,41.1,33.2,99,71,33,30.04,29.94,14,4,14,0.00
2013-5-15,77.5,62.2,48.0,69.8,59.6,41.5,99,91,72,29.99,29.58,9,3,9,0.00
2013-5-16,83.7,69.1,57.2,71.0,62.7,56.6,99,83,49,29.74,29.59,8,2,8,0.00
2013-5-17,81.9,67.7,53.4,69.2,53.6,46.5,99,63,38,30.09,29.71,14,3,14,0.00
2013-5-18,69.3,58.5,52.9,65.1,58.0,52.6,99,98,84,30.22,30.09,8,2,8,0.02
2013-5-19,59.4,57.2,55.4,58.9,57.0,55.1,99,99,99,30.20,30.05,9,2,9,0.51
2013-5-20,85.1,67.8,57.9,82.3,67.2,55.9,99,98,83,30.07,29.86,6,1,6,0.01
2013-5-21,92.8,76.7,64.8,84.2,74.4,64.5,99,93,74,29.87,29.73,9,2,9,0.00
2013-5-22,89.1,73.7,63.7,86.3,72.6,63.4,99,97,74,29.81,29.72,8,2,8,0.00
2013-5-23,83.8,73.2,64.8,82.0,72.6,64.3,99,98,90,29.81,29.67,13,3,13,0.12
2013-5-24,70.5,58.0,44.8,70.1,57.8,44.5,99,99,99,29.86,29.58,21,5,21,0.21
2013-5-25,62.4,51.3,43.7,53.0,46.6,41.6,99,85,59,29.93,29.81,26,8,26,0.14
2013-5-26,73.8,59.5,47.3,49.6,45.2,40.9,93,62,37,30.10,29.88,22,7,22,0.00
2013-5-27,80.1,62.3,42.1,62.4,49.6,41.6,99,67,37,30.16,30.02,11,2,11,0.00
2013-5-28,76.3,60.4,51.8,66.4,58.4,51.5,99,93,64,30.13,30.01,8,1,8,0.39
2013-5-29,94.5,72.1,56.8,81.3,69.0,56.4,99,91,59,30.02,29.90,11,2,11,0.01
2013-5-30,97.2,81.6,71.8,84.0,76.5,71.5,99,86,57,30.03,29.95,13,3,13,0.00
2013-5-31,93.7,82.1,71.2,83.7,78.0,71.0,99,88,66,30.03,29.89,7,2,7,0.00
2013-6-1,93.9,79.8,69.4,83.1,76.6,69.2,99,90,70,29.93,29.82,9,3,9,0.00
2013-6-2,90.1,77.4,70.7,82.8,76.0,70.4,99,96,77,29.80,29.69,14,3,14,0.24
2013-6-3,82.6,71.6,67.1,82.2,71.3,66.8,99,99,99,29.77,29.67,11,2,14,0.56
2013-6-4,81.9,68.5,57.2,67.6,58.1,54.0,99,72,46,29.99,29.76,12,4,12,0.01
2013-6-5,73.8,64.8,51.6,67.3,59.3,49.8,99,83,63,30.10,29.99,11,2,11,0.00
2013-6-6,72.0,64.4,58.5,71.5,64.2,58.2,99,99,96,30.03,29.88,11,3,11,0.02
2013-6-7,69.1,64.2,61.5,67.9,64.0,61.3,99,99,99,29.88,29.43,11,2,13,3.17
2013-6-8,82.9,70.2,58.6,78.1,69.4,58.4,99,97,83,29.95,29.40,16,4,16,0.40
2013-6-9,88.0,73.8,61.9,77.5,69.5,61.6,99,88,65,30.06,29.94,8,2,8,0.00
2013-6-10,70.0,66.9,64.8,69.7,66.7,64.5,99,99,99,30.05,29.70,11,2,11,2.29
2013-6-11,85.5,76.2,67.8,80.2,74.0,67.6,99,93,75,29.70,29.52,14,5,14,0.04
2013-6-12,86.7,74.3,64.4,71.3,67.3,62.1,99,81,53,29.74,29.61,19,6,19,0.00
2013-6-13,78.1,66.8,60.3,77.5,66.5,60.0,99,99,98,29.74,29.29,13,3,13,0.97
2013-6-14,78.8,63.3,55.0,69.5,61.1,54.8,99,93,68,29.78,29.35,17,5,17,0.08
2013-6-15,88.2,72.2,58.8,71.5,64.7,58.6,99,80,51,29.90,29.77,11,4,11,0.00
2013-6-16,88.0,77.0,62.1,81.6,72.9,61.8,99,88,69,29.89,29.68,16,4,16,0.00
2013-6-17,91.4,76.0,65.7,82.2,73.1,65.4,99,91,67,29.81,29.72,14,3,14,0.07
2013-6-18,84.2,69.9,63.9,82.0,69.5,63.6,99,98,88,29.79,29.67,10,2,10,0.37
2013-6-19,84.2,70.5,60.8,70.1,64.6,60.3,99,83,55,30.05,29.73,11,3,11,0.01
2013-6-20,82.6,70.1,55.2,74.1,64.3,55.0,99,83,62,30.17,30.05,10,2,10,0.00
2013-6-21,82.4,71.4,58.3,72.2,65.1,58.0,99,82,59,30.21,30.14,8,2,8,0.00
2013-6-22,85.3,72.1,57.7,77.3,67.8,57.5,99,87,65,30.16,30.03,9,2,9,0.00
2013-6-23,89.2,75.9,63.5,85.4,74.5,63.2,99,95,79,30.09,29.96,9,2,9,0.05
2013-6-24,97.3,80.9,72.1,88.6,78.3,71.9,99,92,68,29.98,29.85,15,4,15,0.01
2013-6-25,95.2,81.6,68.7,86.5,78.4,68.5,99,91,69,29.89,29.71,14,4,14,0.00
2013-6-26,95.7,81.1,71.6,85.0,77.1,71.2,99,89,63,29.75,29.66,17,4,17,0.97
2013-6-27,90.7,78.0,71.4,88.8,77.7,71.2,99,99,92,29.70,29.47,17,3,17,0.02
2013-6-28,94.6,79.9,72.1,85.7,78.2,71.9,99,95,72,29.49,29.36,11,3,11,0.01
2013-6-29,90.5,76.7,68.0,85.6,75.9,67.7,99,97,78,29.60,29.38,8,2,8,0.06
2013-6-30,87.1,75.3,68.7,86.0,75.1,68.5,99,99,99,29.80,29.59,7,2,7,0.04
2013-7-1,89.1,75.2,70.2,88.7,74.9,69.9,99,99,96,29.94,29.78,9,2,9,0.15
2013-7-2,87.6,76.3,71.2,86.7,76.1,71.0,99,99,97,30.09,29.94,15,2,15,0.20
2013-7-3,90.3,78.7,71.1,89.4,78.5,70.8,99,99,93,30.14,30.05,8,2,8,0.65
2013-7-4,97.3,83.0,73.9,92.8,81.6,73.7,99,96,77,30.15,30.05,9,2,9,0.00
2013-7-5,97.7,84.7,73.0,90.7,81.9,72.6,99,92,70,30.11,29.99,13,3,13,0.00
2013-7-6,99.9,86.4,75.4,89.6,83.0,75.1,99,90,67,30.05,29.91,11,4,11,0.00
2013-7-7,99.0,86.9,76.3,91.2,83.8,76.0,99,91,71,29.96,29.82,13,4,13,0.00
2013-7-8,94.3,80.0,72.3,85.8,78.2,72.1,99,95,72,29.95,29.88,12,4,12,0.00
2013-7-9,92.1,80.4,70.7,86.9,78.8,70.4,99,95,78,29.96,29.88,9,2,9,0.00
2013-7-10,93.2,84.4,71.6,89.7,83.1,71.3,99,96,78,29.92,29.70,12,3,12,0.00
2013-7-11,92.3,80.3,75.4,86.4,79.3,75.1,99,97,75,29.80,29.69,11,2,11,0.14
2013-7-12,78.8,73.7,69.4,78.0,73.4,69.0,99,99,96,29.95,29.79,19,4,19,0.08
2013-7-13,92.1,78.4,70.9,90.8,78.1,70.6,99,99,95,30.17,29.95,11,2,11,0.01
2013-7-14,95.9,83.3,74.7,90.3,82.0,74.4,99,96,82,30.23,30.14,9,3,9,0.00
2013-7-15,99.5,85.8,75.7,89.6,82.8,75.5,99,91,71,30.15,30.00,11,4,11,0.00
2013-7-16,100.6,86.8,76.3,84.8,80.1,76.0,99,83,54,30.07,29.62,11,2,11,0.00
2013-7-17,99.9,86.8,73.8,89.0,81.6,73.5,99,86,64,29.69,29.58,8,2,8,0.00
2013-7-18,102.4,89.0,78.1,94.0,85.9,77.8,99,91,69,29.59,29.46,9,3,9,0.00
2013-7-19,102.0,90.3,80.6,93.2,87.0,80.4,99,91,68,29.50,29.31,16,5,16,0.00
2013-7-20,98.2,87.1,79.7,89.3,84.1,79.5,99,91,67,29.35,29.24,15,5,15,0.00
2013-7-21,90.3,79.5,74.3,84.4,77.6,74.1,99,94,70,29.46,29.33,11,3,11,0.00
2013-7-22,88.0,79.0,75.2,87.8,78.7,75.0,99,99,99,29.46,29.30,9,2,9,0.00
2013-7-23,93.6,81.2,72.5,90.9,80.3,72.2,99,97,77,29.52,29.08,12,3,12,0.15
2013-7-24,89.6,79.8,72.5,82.6,76.7,67.6,99,91,76,29.79,29.50,12,4,12,0.00
2013-7-25,72.3,67.4,65.1,68.4,66.2,64.7,99,96,84,29.91,29.79,13,4,13,0.01
2013-7-26,88.7,74.0,65.3,80.2,71.7,65.0,99,93,72,29.94,29.86,10,3,10,0.00
2013-7-27,89.8,76.0,65.5,83.8,73.9,65.2,99,94,73,29.95,29.85,8,2,8,0.00
2013-7-28,85.1,74.5,65.5,84.5,74.2,65.2,99,99,97,29.88,29.80,13,2,13,0.14
2013-7-29,91.8,77.3,67.6,86.0,73.4,65.1,99,89,58,30.00,29.83,11,3,11,0.04
2013-7-30,86.9,74.8,63.0,72.2,67.8,62.7,99,80,57,30.06,29.99,14,3,14,0.00
2013-7-31,89.6,75.5,64.4,76.3,70.8,64.1,99,87,60,30.05,29.93,8,2,8,0.00
2013-8-1,77.0,71.8,69.4,76.8,71.5,69.2,99,99,99,29.93,29.71,8,2,9,0.65
2013-8-2,89.2,78.1,68.2,79.0,73.7,67.9,99,88,66,29.81,29.68,11,3,11,0.00
2013-8-3,83.7,74.9,68.4,80.5,74.2,68.1,99,98,85,29.81,29.75,11,4,11,0.01
2013-8-4,85.8,74.5,62.6,76.8,67.7,62.3,99,81,57,29.86,29.73,14,4,14,0.00
2013-8-5,85.6,71.2,59.2,69.2,63.6,58.7,99,79,46,29.94,29.86,12,3,12,0.00
2013-8-6,86.4,74.2,60.3,74.5,68.8,60.0,99,85,58,30.01,29.92,8,2,8,0.00
2013-8-7,84.4,74.7,68.7,80.1,73.9,68.5,99,97,84,30.03,29.95,12,2,12,0.00
2013-8-8,89.4,76.1,71.4,88.9,75.9,71.2,99,99,98,29.96,29.89,8,2,8,0.44
2013-8-9,89.2,80.2,73.4,89.0,80.0,73.2,99,99,98,29.91,29.70,13,2,13,0.00
2013-8-10,88.7,79.0,71.1,80.7,75.5,70.8,99,90,69,29.93,29.74,11,3,11,0.00
2013-8-11,86.9,75.2,63.5,77.5,70.9,63.2,99,88,67,30.01,29.92,9,2,9,0.01
2013-8-12,86.7,75.6,68.4,85.4,75.2,68.1,99,99,90,29.92,29.81,6,1,6,0.00
2013-8-13,85.5,72.8,68.4,84.3,72.5,68.1,99,99,93,29.82,29.59,9,1,9,1.15
2013-8-14,79.5,71.8,61.7,71.0,64.4,59.8,99,79,59,29.93,29.62,19,5,19,0.00
2013-8-15,82.9,69.1,55.9,70.3,63.4,55.5,99,84,53,30.03,29.93,8,3,8,0.00
2013-8-16,86.4,71.7,57.6,75.0,66.1,57.3,99,84,53,30.10,30.01,10,2,10,0.00
2013-8-17,87.1,72.4,58.3,77.3,67.6,58.0,99,86,59,30.17,30.09,8,2,8,0.00
2013-8-18,81.1,74.3,63.0,76.7,71.2,62.5,99,90,74,30.12,30.01,8,2,8,0.01
2013-8-19,83.7,75.2,61.9,76.9,71.8,61.6,99,89,73,30.01,29.92,9,3,9,0.01
2013-8-20,92.3,77.8,66.0,83.7,75.1,65.8,99,92,68,30.02,29.94,8,2,8,0.00
2013-8-21,93.9,80.4,69.4,88.7,77.3,69.2,99,91,62,30.07,29.96,11,2,11,0.00
2013-8-22,89.6,76.5,72.0,87.5,76.2,71.7,99,99,92,29.96,29.77,13,3,13,0.46
2013-8-23,85.8,75.3,64.6,79.6,70.7,64.3,99,87,53,29.97,29.75,9,2,9,0.00
2013-8-24,83.8,72.1,60.1,75.1,68.2,59.8,99,88,67,30.23,29.96,12,3,12,0.00
2013-8-25,89.6,71.7,57.4,73.4,64.8,57.1,99,81,52,30.29,30.14,8,2,8,0.00
2013-8-26,88.9,74.7,65.3,78.5,71.7,62.7,99,91,69,30.15,29.81,14,5,14,0.00
2013-8-27,93.7,79.5,70.9,83.3,76.7,70.6,99,92,66,29.81,29.72,15,4,15,0.04
2013-8-28,88.3,78.2,68.9,85.0,77.6,68.6,99,98,84,29.77,29.72,7,1,7,0.00
2013-8-29,85.1,74.5,70.3,81.0,73.8,70.1,99,97,86,29.92,29.74,11,3,11,0.00
2013-8-30,88.5,76.6,69.6,83.5,75.6,69.4,99,97,81,29.91,29.76,11,3,11,0.00
2013-8-31,93.6,79.4,70.3,89.1,78.7,70.1,99,98,83,29.78,29.67,11,3,11,0.00
2013-9-1,90.3,78.7,72.5,89.6,78.4,72.2,99,99,96,29.74,29.67,8,2,8,0.09
2013-9-2,88.2,76.1,70.7,88.0,75.9,70.4,99,99,95,29.68,29.59,6,1,6,0.12
2013-9-3,87.8,75.9,66.9,84.7,73.7,66.5,99,93,71,29.77,29.59,11,3,11,0.01
2013-9-4,87.3,72.7,61.0,72.8,67.6,60.7,99,86,59,29.89,29.76,14,4,14,0.00
2013-9-5,85.5,70.6,56.8,74.5,64.9,52.8,99,84,51,30.02,29.83,11,3,11,0.00
2013-9-6,78.3,64.5,54.1,62.3,57.1,52.4,99,78,54,30.14,30.02,12,3,12,0.00
2013-9-7,84.2,66.9,49.8,69.4,61.1,49.6,99,84,49,30.03,29.80,11,2,11,0.00
2013-9-8,88.0,73.9,64.6,79.3,68.3,56.0,99,84,62,29.95,29.70,16,4,16,0.00
2013-9-9,81.9,70.1,62.2,68.8,63.3,54.8,99,80,62,30.13,29.95,13,3,13,0.00
2013-9-10,93.7,78.6,68.7,89.0,77.6,68.5,99,97,83,30.06,29.93,12,3,12,0.00
2013-9-11,100.4,84.1,73.9,93.8,81.8,73.7,99,93,74,30.01,29.87,8,3,8,0.00
2013-9-12,93.4,78.5,71.4,88.0,77.9,71.2,99,98,83,29.89,29.58,14,2,14,0.37
2013-9-13,83.1,71.4,60.3,78.1,69.0,58.9,99,92,67,29.74,29.51,15,4,15,0.17
2013-9-14,71.6,60.1,51.3,61.3,56.5,51.0,99,89,66,30.02,29.73,13,4,13,0.00
2013-9-15,80.1,62.0,47.1,68.9,57.5,46.9,99,87,53,30.12,29.97,10,3,10,0.00
2013-9-16,78.1,64.3,59.7,72.7,63.5,59.5,99,97,72,30.09,29.93,11,2,11,0.07
2013-9-17,71.1,58.1,45.9,61.1,50.8,45.4,99,79,54,30.32,30.09,17,4,17,0.01
2013-9-18,76.6,60.2,45.0,64.9,55.4,44.7,99,86,62,30.25,30.09,8,2,8,0.00
2013-9-19,82.2,64.5,51.4,70.8,60.6,51.2,99,89,61,30.10,29.97,10,3,10,0.00
2013-9-20,82.9,67.7,56.1,74.8,65.0,55.9,99,92,70,29.99,29.89,8,2,8,0.00
2013-9-21,82.8,67.9,53.4,79.3,67.0,53.2,99,97,76,29.91,29.56,13,2,13,0.11
2013-9-22,75.7,66.2,54.7,69.5,60.9,51.0,99,84,58,29.79,29.53,16,4,16,0.27
2013-9-23,73.2,58.1,46.0,57.7,52.0,45.8,99,82,56,29.93,29.79,13,4,13,0.00
2013-9-24,77.9,59.3,45.0,62.6,54.2,44.7,99,85,57,29.95,29.77,11,3,11,0.00
2013-9-25,78.8,61.8,47.1,67.7,58.2,46.9,99,89,68,29.85,29.76,8,2,8,0.00
2013-9-26,77.0,61.9,49.6,72.8,60.9,49.4,99,96,83,29.98,29.82,10,2,10,0.00
2013-9-27,72.7,63.6,51.6,69.9,62.0,51.4,99,95,73,30.14,29.97,9,2,9,0.00
2013-9-28,78.6,66.9,55.4,69.5,63.6,55.1,99,90,67,30.20,30.11,11,2,11,0.00
2013-9-29,76.1,62.3,51.3,71.7,59.5,51.0,99,91,70,30.11,29.95,11,2,11,0.00
2013-9-30,78.3,62.9,50.7,70.4,60.1,50.5,99,92,69,29.97,29.86,11,2,11,0.00
2013-10-1,87.3,69.4,56.5,74.8,65.5,56.2,99,89,60,29.90,29.78,9,4,9,0.00
2013-10-2,88.2,73.0,61.2,76.2,69.2,60.9,99,89,64,29.89,29.79,12,4,12,0.00
2013-10-3,82.8,70.7,60.8,76.2,66.8,60.5,99,89,63,30.00,29.89,7,1,7,0.00
2013-10-4,92.3,73.2,59.2,81.9,70.6,58.9,99,92,71,29.95,29.84,10,2,10,0.00
2013-10-5,77.5,69.1,64.9,77.3,68.9,64.7,99,99,99,29.97,29.88,8,2,8,0.00
2013-10-6,73.8,68.6,65.5,73.5,68.4,65.2,99,99,99,29.97,29.89,7,2,7,0.00
2013-10-7,80.1,69.7,60.6,79.5,69.4,60.4,99,99,99,29.89,29.67,14,4,14,0.00
2013-10-8,71.1,60.8,51.6,61.4,55.6,51.4,99,84,61,30.18,29.88,14,3,14,0.01
2013-10-9,65.5,61.4,59.4,62.3,59.6,51.4,99,94,73,30.24,30.13,18,5,18,0.00
2013-10-10,63.9,60.6,56.5,63.6,60.4,54.8,99,99,99,30.14,29.91,14,5,14,0.00
2013-10-11,65.5,63.7,61.7,65.2,63.4,61.4,99,99,99,29.93,29.85,16,4,16,0.00
2013-10-12,71.8,64.2,61.7,67.5,63.0,58.4,99,96,80,30.13,29.91,24,5,24,0.14
2013-10-13,68.2,61.8,58.3,62.2,57.6,55.1,89,86,74,30.30,30.12,17,5,17,0.00
2013-10-14,69.4,59.0,48.7,60.9,54.6,45.6,89,86,70,30.23,30.14,11,2,11,0.00
2013-10-15,72.7,59.2,47.1,65.4,54.5,44.0,89,85,66,30.15,29.98,9,2,9,0.00
2013-10-16,69.3,62.6,59.9,65.9,59.3,56.7,89,89,89,29.99,29.81,8,2,8,0.00
2013-10-17,77.5,65.8,60.8,73.4,62.5,57.4,89,89,86,29.81,29.58,9,2,9,0.00
2013-10-18,72.5,62.6,52.7,63.6,53.5,47.7,89,73,50,29.88,29.57,19,7,19,0.00
2013-10-19,70.3,56.5,44.2,60.4,51.0,41.2,89,82,68,29.88,29.64,11,1,11,0.00
2013-10-20,67.8,56.2,47.7,54.9,44.1,36.6,84,66,33,29.97,29.64,14,5,14,0.00
2013-10-21,70.5,56.4,43.2,53.0,45.9,38.7,89,70,38,30.05,29.88,10,3,10,0.00
2013-10-22,72.3,57.0,44.6,61.5,50.2,41.6,89,79,51,29.91,29.73,14,3,14,0.00
2013-10-23,58.3,49.6,42.4,51.7,45.0,39.4,89,84,60,29.90,29.69,12,3,12,0.04
2013-10-24,56.3,45.8,39.2,41.3,35.6,30.7,89,70,40,30.13,29.86,24,6,24,0.00
2013-10-25,58.5,45.7,37.6,38.4,34.8,31.6,88,67,41,30.34,30.13,20,5,20,0.00
2013-10-26,60.3,47.2,34.9,40.2,36.2,31.8,89,68,40,30.33,30.01,19,4,19,0.00
2013-10-27,62.2,50.9,42.6,39.7,37.3,33.9,81,61,40,30.23,29.97,18,5,18,0.00
2013-10-28,64.2,48.9,36.1,43.1,38.4,33.2,89,70,43,30.40,30.22,17,3,17,0.00
2013-10-29,60.6,51.0,41.4,51.4,44.6,38.4,89,79,58,30.49,30.39,11,2,11,0.00
2013-10-30,60.6,50.3,40.3,57.4,47.2,37.3,89,89,89,30.44,30.28,6,0,6,0.01
2013-10-31,69.6,60.9,51.3,66.1,57.7,48.1,89,89,89,30.32,29.92,11,2,11,0.01
2013-11-1,71.6,65.1,59.5,68.2,61.8,56.3,89,89,84,29.92,29.67,22,5,22,0.22
2013-11-2,69.3,59.5,51.1,64.7,54.9,45.3,89,85,70,29.88,29.72,8,2,8,0.00
2013-11-3,56.5,47.0,34.7,46.5,38.1,25.0,89,72,43,30.52,29.87,17,4,17,0.00
2013-11-4,50.2,41.9,33.8,39.8,29.5,20.0,77,62,47,30.73,30.52,11,3,11,0.00
2013-11-5,59.0,50.7,45.1,46.5,43.2,36.4,99,76,52,30.72,29.93,8,2,8,0.00
2013-11-6,63.7,52.9,37.2,58.3,48.3,36.3,99,86,58,30.46,30.05,13,1,13,0.00
2013-11-7,65.3,56.5,40.5,61.9,52.7,33.0,98,87,65,30.05,29.74,25,3,25,0.09
2013-11-8,50.7,43.8,37.4,36.4,30.1,25.6,80,60,41,30.21,29.93,24,5,24,0.00
2013-11-9,140.0,43.5,34.3,37.0,29.2,21.6,79,59,34,30.27,29.98,11,2,11,0.00
2013-11-10,63.0,51.3,43.5,37.9,32.4,23.9,73,50,30,30.04,29.80,30,8,30,0.00
2013-11-11,57.2,49.2,40.3,37.4,29.5,24.7,60,47,32,30.19,29.95,17,5,17,0.00
2013-11-12,51.4,39.2,30.0,38.3,25.8,14.1,97,60,42,30.26,29.91,21,6,21,0.02
2013-11-13,41.4,33.8,26.1,19.3,12.1,3.2,62,43,21,30.34,30.25,17,5,17,0.00
2013-11-14,55.4,42.9,31.3,25.9,15.9,9.2,62,37,17,30.27,30.15,25,7,25,0.00
2013-11-15,61.7,46.4,39.0,39.6,33.6,25.9,91,63,30,30.23,30.13,10,2,10,0.00
2013-11-16,58.6,47.4,41.7,51.3,43.5,34.2,99,87,66,30.31,30.20,7,0,7,0.05
2013-11-17,63.9,56.0,46.8,62.8,55.4,-2.5,99,98,91,30.24,29.79,8,0,8,0.00
2013-11-18,68.4,60.3,49.6,62.8,41.8,23.5,99,56,24,29.79,29.61,27,7,27,0.25
2013-11-19,51.6,44.6,33.8,28.8,24.8,21.0,63,46,35,30.31,29.77,27,7,27,0.00
2013-11-20,46.8,38.7,31.5,27.4,19.7,9.1,67,48,24,30.56,30.31,14,2,14,0.00
2013-11-21,57.2,45.9,31.3,45.1,37.5,22.3,86,73,57,30.56,30.36,9,1,9,0.01
2013-11-22,58.6,52.9,46.4,53.2,49.1,42.6,97,87,75,30.36,29.89,15,3,15,0.00
2013-11-23,140.0,43.8,31.5,51.7,26.6,11.5,92,53,29,30.00,29.88,28,8,28,0.00
2013-11-24,140.0,26.2,23.2,13.9,-6.9,-11.5,48,23,18,30.37,29.98,36,11,36,0.00
2013-11-25,37.9,28.8,20.7,16.2,7.9,-2.7,59,41,25,30.48,30.32,14,5,14,0.00
2013-11-26,54.3,40.5,32.0,53.5,31.4,16.0,99,72,41,30.32,29.69,16,3,16,0.57
2013-11-27,62.6,47.8,34.5,61.8,45.3,3.7,99,92,49,29.74,29.30,28,9,28,1.48
2013-11-28,140.0,32.3,27.7,21.2,12.2,-0.1,63,45,21,30.46,29.74,24,8,24,0.00
2013-11-29,43.2,33.4,26.8,21.9,18.6,15.2,75,56,36,30.70,30.45,14,2,14,0.00
2013-11-30,44.6,36.2,26.6,40.6,25.5,10.4,92,65,48,30.71,30.32,8,2,9,0.00
2013-12-1,53.6,42.3,31.8,40.7,34.7,28.8,96,76,48,30.33,29.83,8,1,8,0.00
2013-12-2,54.0,41.3,34.3,40.8,34.5,29.0,99,78,41,29.91,29.70,9,0,9,0.00
2013-12-3,45.0,38.2,34.7,41.5,37.7,33.8,99,98,84,29.97,29.88,0,0,0,0.00
2013-12-4,53.6,43.9,34.7,47.2,41.1,34.2,99,90,64,30.10,29.97,4,0,4,0.00
2013-12-5,61.9,53.9,46.8,57.4,52.5,46.1,99,95,80,30.08,29.91,11,1,11,0.02
2013-12-6,62.1,49.9,37.2,61.5,49.2,35.9,99,97,92,30.10,29.85,11,3,11,0.52
2013-12-7,42.6,36.7,31.1,36.6,28.5,16.6,97,73,51,30.48,30.04,18,4,18,0.13
2013-12-8,39.9,31.4,26.4,39.5,23.0,12.0,99,73,50,30.54,30.29,11,1,11,0.05
2013-12-9,44.4,39.8,34.5,43.9,39.1,32.8,99,97,91,30.30,29.93,15,4,15,0.72
2013-12-10,35.6,32.9,27.5,33.0,29.2,19.5,95,86,65,30.13,29.81,16,4,16,0.02
2013-12-11,34.5,29.8,24.4,20.0,15.1,9.6,78,54,40,30.33,30.13,19,6,19,0.00
2013-12-12,29.1,24.0,20.3,13.7,5.5,-7.9,62,46,21,30.33,30.16,11,3,11,0.00
2013-12-13,38.3,28.1,18.9,17.2,9.9,3.3,66,47,29,30.30,30.12,21,5,21,0.01
2013-12-14,51.1,36.3,28.0,50.6,30.5,14.7,99,80,51,30.42,29.65,28,4,28,1.19
2013-12-15,54.3,39.2,32.0,53.3,32.6,17.6,99,79,50,29.85,29.43,23,7,23,0.44
2013-12-16,32.7,27.7,18.5,20.6,7.3,-4.8,72,44,23,30.21,29.83,24,6,24,0.00
2013-12-17,43.5,32.5,24.3,42.5,25.8,5.3,97,78,42,30.19,29.87,10,1,10,0.17
2013-12-18,39.0,30.3,24.1,21.9,18.6,14.8,82,63,40,30.17,29.87,20,5,20,0.00
2013-12-19,51.4,37.2,26.2,31.4,24.0,15.6,78,60,35,30.18,30.00,16,2,16,0.00
2013-12-20,56.7,45.9,31.8,49.2,34.3,28.1,90,67,39,30.08,29.95,13,3,13,0.00
2013-12-21,68.2,57.4,51.8,55.8,48.8,45.8,91,74,53,29.98,29.87,16,4,16,0.00
2013-12-22,72.1,63.4,55.9,62.3,57.9,53.6,95,82,69,29.96,29.80,21,7,21,0.04
2013-12-23,63.3,55.6,42.3,60.4,53.2,33.7,99,92,72,30.13,29.87,15,2,15,0.57
2013-12-24,43.7,36.7,27.9,33.7,20.1,3.0,72,51,34,30.32,30.05,18,6,18,0.00
2013-12-25,32.4,26.3,19.2,17.3,4.9,-4.5,59,40,24,30.49,30.32,21,3,21,0.00
2013-12-26,41.7,31.3,23.9,24.6,19.4,12.5,79,62,43,30.39,30.13,19,2,19,0.00
2013-12-27,44.8,33.1,25.2,23.4,17.5,8.7,80,55,25,30.35,30.24,15,2,15,0.00
2013-12-28,58.8,43.0,25.9,28.3,23.7,17.5,82,49,25,30.27,30.05,24,6,24,0.00
2013-12-29,57.0,45.2,42.1,56.4,36.8,26.1,99,75,48,30.05,29.35,19,6,19,1.31
2013-12-30,140.0,38.8,25.0,39.8,28.6,5.1,91,69,42,30.16,29.62,23,6,23,0.00
2013-12-31,38.1,29.1,21.6,21.9,10.0,2.0,59,44,33,30.26,30.03,22,5,22,0.00
2014-1-1,39.4,31.2,23.2,28.9,14.2,3.1,71,50,34,30.38,30.22,16,2,16,0.00
2014-1-2,37.0,34.1,24.1,27.8,26.9,21.1,93,75,69,30.22,29.57,17,4,17,0.00